AUA67 EDDF-EDDL

Flight info

Callsign AUA67
Flight time 0h 43m
Altitude 22000
Route MARUN3W MARUN Y152 ARPEG Z850 ADEMI T854 DOMUX DOMUX1A
Aircraft A20N/M-SDE2E3FGHIRWXY/LB1

Departure

Time 2026-05-04 19:30
Airport Frankfurt Main Airport (EDDF)

Arrival

Time 2026-05-04 20:14
Airport Düsseldorf Airport (EDDL)
Time Latitude Longitude Altitude Speed Heading
2026-05-04 19:13 50.04067 8.55645 353 ft 0 kts 160°
2026-05-04 19:23 50.04054 8.55652 353 ft 4 kts 160°
2026-05-04 19:23 50.04007 8.55682 351 ft 9 kts 146°
2026-05-04 19:23 50.04013 8.55798 349 ft 13 kts 70°
2026-05-04 19:24 50.04050 8.55949 352 ft 15 kts 69°
2026-05-04 19:24 50.04091 8.56119 354 ft 17 kts 70°
2026-05-04 19:24 50.04136 8.56307 357 ft 19 kts 69°
2026-05-04 19:24 50.04183 8.56497 359 ft 14 kts 70°
2026-05-04 19:25 50.04203 8.56580 359 ft 2 kts 69°
2026-05-04 19:25 50.04211 8.56611 360 ft 3 kts 69°
2026-05-04 19:25 50.04223 8.56661 360 ft 7 kts 70°
2026-05-04 19:25 50.04228 8.56737 362 ft 3 kts 107°
2026-05-04 19:26 50.04219 8.56759 362 ft 1 kts 129°
2026-05-04 19:26 50.04200 8.56776 361 ft 5 kts 172°
2026-05-04 19:26 50.04172 8.56772 360 ft 1 kts 189°
2026-05-04 19:26 50.04171 8.56771 360 ft 0 kts 188°
2026-05-04 19:27 50.04167 8.56771 360 ft 0 kts 188°
2026-05-04 19:29 50.04167 8.56770 360 ft 0 kts 188°
2026-05-04 19:29 50.04111 8.56758 358 ft 13 kts 188°
2026-05-04 19:29 50.04029 8.56682 353 ft 16 kts 251°
2026-05-04 19:29 50.03955 8.56370 351 ft 65 kts 250°
2026-05-04 19:30 50.03698 8.55296 343 ft 142 kts 250°
2026-05-04 19:30 50.03304 8.53664 734 ft 169 kts 250°
2026-05-04 19:30 50.02893 8.52000 1555 ft 171 kts 252°
2026-05-04 19:30 50.02419 8.50293 2309 ft 182 kts 240°
2026-05-04 19:31 50.01531 8.48841 3073 ft 195 kts 217°
2026-05-04 19:31 50.00266 8.47996 3799 ft 211 kts 193°
2026-05-04 19:31 49.98744 8.47614 4547 ft 231 kts 189°
2026-05-04 19:31 49.97098 8.47292 5305 ft 251 kts 189°
2026-05-04 19:32 49.95334 8.46738 6058 ft 273 kts 195°
2026-05-04 19:32 49.93442 8.45913 6814 ft 296 kts 197°
2026-05-04 19:32 49.91513 8.44587 7549 ft 318 kts 217°
2026-05-04 19:32 49.90083 8.41864 8305 ft 340 kts 245°
2026-05-04 19:33 49.89581 8.38205 9063 ft 363 kts 270°
2026-05-04 19:33 49.90145 8.34353 9812 ft 382 kts 292°
2026-05-04 19:33 49.91728 8.31039 10572 ft 391 kts 316°
2026-05-04 19:33 49.94088 8.28913 11313 ft 399 kts 340°
2026-05-04 19:34 49.96854 8.28365 12060 ft 415 kts
2026-05-04 19:34 49.99744 8.29129 12823 ft 428 kts
2026-05-04 19:34 50.02722 8.29476 13557 ft 432 kts 356°
2026-05-04 19:34 50.05715 8.29174 14305 ft 432 kts 356°
2026-05-04 19:35 50.08668 8.29684 15037 ft 434 kts 13°
2026-05-04 19:35 50.11568 8.31056 15793 ft 435 kts 17°
2026-05-04 19:35 50.14431 8.32594 16538 ft 442 kts 18°
2026-05-04 19:35 50.17337 8.34185 17282 ft 448 kts 18°
2026-05-04 19:36 50.20290 8.35787 18032 ft 454 kts 18°
2026-05-04 19:36 50.23273 8.37385 18798 ft 458 kts 18°
2026-05-04 19:36 50.26274 8.38978 19565 ft 461 kts 18°
2026-05-04 19:36 50.29331 8.40596 20331 ft 463 kts 17°
2026-05-04 19:37 50.32348 8.42218 21092 ft 465 kts 18°
2026-05-04 19:37 50.35426 8.43893 21661 ft 471 kts 18°
2026-05-04 19:37 50.38573 8.45617 21933 ft 484 kts 18°
2026-05-04 19:37 50.41785 8.47379 21954 ft 496 kts 18°
2026-05-04 19:38 50.45034 8.49161 21964 ft 498 kts 18°
2026-05-04 19:38 50.48288 8.50880 21965 ft 499 kts 16°
2026-05-04 19:38 50.51628 8.52506 21968 ft 498 kts 15°
2026-05-04 19:38 50.54910 8.54065 21967 ft 499 kts 15°
2026-05-04 19:39 50.58227 8.55637 21969 ft 499 kts 15°
2026-05-04 19:39 50.61523 8.57209 21967 ft 498 kts 15°
2026-05-04 19:39 50.64858 8.58811 21970 ft 498 kts 15°
2026-05-04 19:39 50.68158 8.60403 21974 ft 498 kts 15°
2026-05-04 19:40 50.71484 8.62009 21972 ft 499 kts 15°
2026-05-04 19:40 50.74754 8.63586 21967 ft 498 kts 15°
2026-05-04 19:40 50.78130 8.64586 21944 ft 494 kts 359°
2026-05-04 19:40 50.81497 8.63914 21955 ft 488 kts 341°
2026-05-04 19:41 50.84569 8.61692 21962 ft 482 kts 323°
2026-05-04 19:41 50.87056 8.58240 21969 ft 476 kts 308°
2026-05-04 19:41 50.89184 8.54218 21977 ft 476 kts 306°
2026-05-04 19:41 50.91270 8.50200 21976 ft 476 kts 306°
2026-05-04 19:42 50.93373 8.46179 21972 ft 476 kts 306°
2026-05-04 19:42 50.95497 8.42157 21979 ft 476 kts 307°
2026-05-04 19:42 50.97630 8.38140 21979 ft 477 kts 307°
2026-05-04 19:42 50.99836 8.34228 21969 ft 479 kts 311°
2026-05-04 19:43 51.02285 8.30704 21975 ft 482 kts 318°
2026-05-04 19:43 51.05014 8.27586 21980 ft 484 kts 324°
2026-05-04 19:43 51.07902 8.24886 21975 ft 486 kts 328°
2026-05-04 19:43 51.10889 8.22269 21974 ft 486 kts 328°
2026-05-04 19:44 51.13830 8.19702 21975 ft 487 kts 328°
2026-05-04 19:44 51.16817 8.17081 21974 ft 487 kts 328°
2026-05-04 19:44 51.19767 8.14470 21978 ft 487 kts 328°
2026-05-04 19:44 51.22709 8.11848 21970 ft 486 kts 328°
2026-05-04 19:45 51.25626 8.09243 21971 ft 486 kts 328°
2026-05-04 19:45 51.28587 8.06588 21972 ft 487 kts 328°
2026-05-04 19:45 51.31523 8.03951 21974 ft 487 kts 328°
2026-05-04 19:45 51.34449 8.01317 21661 ft 486 kts 328°
2026-05-04 19:46 51.37394 7.98665 21154 ft 481 kts 328°
2026-05-04 19:46 51.40262 7.96074 20650 ft 477 kts 328°
2026-05-04 19:46 51.43133 7.93463 20154 ft 473 kts 327°
2026-05-04 19:46 51.45651 7.90201 19629 ft 463 kts 308°
2026-05-04 19:47 51.47270 7.85857 19134 ft 448 kts 288°
2026-05-04 19:47 51.47941 7.81086 18638 ft 432 kts 273°
2026-05-04 19:47 51.47805 7.76457 18127 ft 405 kts 257°
2026-05-04 19:47 51.46996 7.72322 17634 ft 377 kts 246°
2026-05-04 19:48 51.46012 7.68564 17132 ft 355 kts 245°
2026-05-04 19:48 51.45081 7.65057 16636 ft 337 kts 245°
2026-05-04 19:48 51.44185 7.61676 16132 ft 321 kts 246°
2026-05-04 19:48 51.43356 7.58467 15631 ft 308 kts 250°
2026-05-04 19:49 51.43040 7.55137 15111 ft 300 kts 274°
2026-05-04 19:49 51.43608 7.52041 14619 ft 295 kts 299°
2026-05-04 19:49 51.44851 7.49457 14133 ft 292 kts 311°
2026-05-04 19:49 51.46229 7.47165 13879 ft 281 kts 313°
2026-05-04 19:50 51.47606 7.44974 13412 ft 278 kts 314°
2026-05-04 19:50 51.48966 7.42831 12918 ft 272 kts 314°
2026-05-04 19:50 51.50307 7.40721 12364 ft 269 kts 314°
2026-05-04 19:50 51.51639 7.38636 11748 ft 269 kts 314°
2026-05-04 19:51 51.52951 7.36585 11140 ft 268 kts 314°
2026-05-04 19:51 51.54281 7.34504 10524 ft 266 kts 313°
2026-05-04 19:51 51.55591 7.32435 10093 ft 257 kts 313°
2026-05-04 19:51 51.56840 7.30474 9977 ft 254 kts 313°
2026-05-04 19:52 51.58110 7.28477 9976 ft 255 kts 313°
2026-05-04 19:52 51.59378 7.26478 9855 ft 258 kts 313°
2026-05-04 19:52 51.60655 7.24467 9228 ft 260 kts 313°
2026-05-04 19:52 51.61943 7.22427 8606 ft 261 kts 313°
2026-05-04 19:53 51.63215 7.20405 8038 ft 258 kts 313°
2026-05-04 19:53 51.64473 7.18399 7447 ft 255 kts 313°
2026-05-04 19:53 51.65714 7.16403 7062 ft 244 kts 309°
2026-05-04 19:53 51.66528 7.14101 6971 ft 236 kts 279°
2026-05-04 19:54 51.66452 7.11536 6960 ft 232 kts 247°
2026-05-04 19:54 51.65683 7.09265 6973 ft 232 kts 235°
2026-05-04 19:54 51.64760 7.07138 6964 ft 233 kts 233°
2026-05-04 19:54 51.63802 7.05023 6959 ft 233 kts 233°
2026-05-04 19:55 51.62849 7.02931 6958 ft 232 kts 233°
2026-05-04 19:55 51.61893 7.00831 6957 ft 233 kts 233°
2026-05-04 19:55 51.60940 6.98736 6955 ft 233 kts 233°
2026-05-04 19:55 51.59983 6.96635 6951 ft 233 kts 233°
2026-05-04 19:56 51.59021 6.94535 6953 ft 233 kts 233°
2026-05-04 19:56 51.58063 6.92443 6956 ft 233 kts 233°
2026-05-04 19:56 51.57116 6.90364 6958 ft 232 kts 233°
2026-05-04 19:56 51.56162 6.88250 6956 ft 232 kts 233°
2026-05-04 19:57 51.55222 6.86153 6958 ft 232 kts 233°
2026-05-04 19:57 51.54284 6.84055 6960 ft 232 kts 233°
2026-05-04 19:57 51.53345 6.81945 6960 ft 233 kts 233°
2026-05-04 19:57 51.52401 6.79830 6957 ft 233 kts 233°
2026-05-04 19:58 51.51458 6.77751 6957 ft 233 kts 229°
2026-05-04 19:58 51.50173 6.76223 6933 ft 230 kts 198°
2026-05-04 19:58 51.48603 6.76068 6941 ft 231 kts 166°
2026-05-04 19:58 51.47168 6.77210 6967 ft 234 kts 147°
2026-05-04 19:59 51.45867 6.78791 6949 ft 235 kts 144°
2026-05-04 19:59 51.44591 6.80476 6956 ft 236 kts 141°
2026-05-04 19:59 51.43609 6.82539 6933 ft 241 kts 113°
2026-05-04 19:59 51.43419 6.85198 6960 ft 246 kts 81°
2026-05-04 20:00 51.44090 6.87738 6985 ft 252 kts 58°
2026-05-04 20:00 51.45100 6.90010 6962 ft 248 kts 54°
2026-05-04 20:00 51.46152 6.92176 6965 ft 245 kts 53°
2026-05-04 20:00 51.47201 6.94306 6962 ft 244 kts 53°
2026-05-04 20:01 51.48259 6.96459 6960 ft 244 kts 53°
2026-05-04 20:01 51.49308 6.98600 6956 ft 244 kts 53°
2026-05-04 20:01 51.50361 7.00748 6605 ft 250 kts 53°
2026-05-04 20:01 51.51445 7.02955 6110 ft 257 kts 53°
2026-05-04 20:02 51.52548 7.05232 5693 ft 259 kts 53°
2026-05-04 20:02 51.53642 7.07491 5344 ft 258 kts 53°
2026-05-04 20:02 51.54736 7.09746 4996 ft 256 kts 53°
2026-05-04 20:02 51.55822 7.11978 4528 ft 252 kts 52°
2026-05-04 20:03 51.56882 7.14184 4108 ft 244 kts 53°
2026-05-04 20:03 51.57879 7.16270 4006 ft 230 kts 53°
2026-05-04 20:03 51.58850 7.18306 3997 ft 230 kts 53°
2026-05-04 20:03 51.59829 7.20359 4000 ft 230 kts 53°
2026-05-04 20:04 51.60656 7.22536 3972 ft 228 kts 75°
2026-05-04 20:04 51.60712 7.24993 3977 ft 222 kts 109°
2026-05-04 20:04 51.59929 7.27056 3979 ft 216 kts 143°
2026-05-04 20:04 51.58583 7.28015 3980 ft 212 kts 178°
2026-05-04 20:05 51.57141 7.27674 4003 ft 212 kts 198°
2026-05-04 20:05 51.55754 7.26868 3996 ft 213 kts 202°
2026-05-04 20:05 51.54400 7.25937 3988 ft 213 kts 208°
2026-05-04 20:05 51.53108 7.24718 3989 ft 213 kts 212°
2026-05-04 20:06 51.51862 7.23442 3990 ft 213 kts 215°
2026-05-04 20:06 51.50734 7.21940 3990 ft 212 kts 225°
2026-05-04 20:06 51.49763 7.20134 3991 ft 213 kts 233°
2026-05-04 20:06 51.48914 7.18184 4001 ft 213 kts 235°
2026-05-04 20:07 51.48073 7.16230 3985 ft 213 kts 234°
2026-05-04 20:07 51.47219 7.14308 3997 ft 213 kts 232°
2026-05-04 20:07 51.46345 7.12409 3995 ft 213 kts 232°
2026-05-04 20:07 51.45451 7.10512 3991 ft 213 kts 232°
2026-05-04 20:08 51.44552 7.08634 3992 ft 212 kts 231°
2026-05-04 20:08 51.43650 7.06762 3981 ft 206 kts 231°
2026-05-04 20:08 51.42807 7.05014 3968 ft 191 kts 231°
2026-05-04 20:08 51.42034 7.03415 3946 ft 176 kts 231°
2026-05-04 20:09 51.41296 7.01887 3805 ft 170 kts 231°
2026-05-04 20:09 51.40581 7.00408 3585 ft 169 kts 231°
2026-05-04 20:09 51.39858 6.98907 3358 ft 170 kts 231°
2026-05-04 20:09 51.39141 6.97417 3132 ft 169 kts 231°
2026-05-04 20:10 51.38428 6.95932 2906 ft 169 kts 231°
2026-05-04 20:10 51.37711 6.94436 2681 ft 169 kts 231°
2026-05-04 20:10 51.36997 6.92946 2454 ft 169 kts 231°
2026-05-04 20:10 51.36283 6.91453 2227 ft 169 kts 231°
2026-05-04 20:11 51.35574 6.89970 2006 ft 169 kts 231°
2026-05-04 20:11 51.34846 6.88447 1821 ft 171 kts 231°
2026-05-04 20:11 51.34146 6.86980 1612 ft 162 kts 231°
2026-05-04 20:11 51.33493 6.85611 1390 ft 150 kts 231°
2026-05-04 20:12 51.32882 6.84331 1162 ft 141 kts 231°
2026-05-04 20:12 51.32287 6.83084 979 ft 141 kts 231°
2026-05-04 20:12 51.31691 6.81837 800 ft 141 kts 231°
2026-05-04 20:12 51.31097 6.80591 617 ft 141 kts 231°
2026-05-04 20:13 51.30500 6.79341 431 ft 141 kts 231°
2026-05-04 20:13 51.29914 6.78117 230 ft 141 kts 231°
2026-05-04 20:13 51.29332 6.76894 127 ft 128 kts 231°
2026-05-04 20:13 51.28959 6.76117 124 ft 56 kts 233°
2026-05-04 20:14 51.28809 6.75815 123 ft 24 kts 225°
2026-05-04 20:14 51.28663 6.75687 120 ft 22 kts 194°
2026-05-04 20:14 51.28540 6.75702 120 ft 14 kts 158°
2026-05-04 20:14 51.28490 6.75744 120 ft 3 kts 144°